This is the latest recevied weather packets stored in our database for station/object KC4JY. If no packets are shown the sender has not sent any weather packets the latest 10 day(s).
| Time | Temp. | Humidity | Pressure | Rain* | Wind** | Luminosity | Snow |
|---|---|---|---|---|---|---|---|
| 1778044565 | 16.67° C | 80% | 1016.2 hPa | 0 mm | - | - | - |
| 1778043668 | 16.67° C | 80% | 1016.3 hPa | 0 mm | - | - | - |
| 1778042752 | 16.67° C | 80% | 1016.3 hPa | 0 mm | - | - | - |
| 1778041847 | 16.11° C | 80% | 1016.5 hPa | 0 mm | - | - | - |
| 1778040944 | 16.67° C | 79% | 1016.5 hPa | 0 mm | - | - | - |
| 1778040044 | 16.67° C | 78% | 1016.6 hPa | 0 mm | - | - | - |
| 1778039127 | 16.67° C | 77% | 1016.8 hPa | 0 mm | - | - | - |
| 1778038223 | 16.67° C | 77% | 1016.7 hPa | 0 mm | - | - | - |
| 1778037310 | 17.22° C | 75% | 1016.7 hPa | 0 mm | - | - | - |
| 1778036410 | 17.22° C | 75% | 1016.7 hPa | 0 mm | - | - | - |
| 1778035525 | 17.78° C | 75% | 1016.8 hPa | 0 mm | - | - | - |
| 1778034609 | 17.78° C | 74% | 1016.7 hPa | 0 mm | - | - | - |
| 1778033708 | 18.33° C | 73% | 1016.7 hPa | 0 mm | - | - | - |
| 1778032809 | 18.33° C | 72% | 1016.5 hPa | 0 mm | - | - | - |
| 1778031909 | 18.89° C | 71% | 1016.5 hPa | 0 mm | - | - | - |
| 1778031007 | 18.89° C | 70% | 1016.3 hPa | 0 mm | - | - | - |
| 1778030162 | 19.44° C | 70% | 1016.2 hPa | 0 mm | - | - | - |
| 1778029249 | 19.44° C | 69% | 1016 hPa | 0 mm | - | - | - |
| 1778028332 | 20° C | 69% | 1015.9 hPa | 0 mm | - | - | - |
| 1778027431 | 20° C | 69% | 1015.6 hPa | 0 mm | - | - | - |
| 1778026513 | 20.56° C | 68% | 1015.5 hPa | 0 mm | - | - | - |
| 1778025613 | 21.11° C | 66% | 1015.4 hPa | 0 mm | - | - | - |
| 1778024766 | 21.67° C | 65% | 1015.3 hPa | 0 mm | - | - | - |
| 1778023854 | 22.22° C | 63% | 1015.2 hPa | 0 mm | - | - | - |
| 1778022944 | 22.78° C | 62% | 1015.1 hPa | 0 mm | - | - | - |
* Rain latest hour (hover to see other rain measurements)
** Current wind speed in m/s (hover to see current wind gust speed)